SCP
0 0 0 0 0 0 0 0 0 0 0 0 -0 0 0 -0 -0 0 0 0 0 0 0 -0 -0 -0 -0 -0 0 0 0 0 0 0 0 0 0 0 0 0 0 0 0
0 0 0 0 0 0 0 0 0 0 0 0 0 0 0 -0 -0 -0 -0 0 0 0 -0 -0 0 -0 -0 -0 -0 0 0 0 0 0 0 0 0 0 0 0 0 0 0
0 0 0 0 0 0 0 0 0 0 0 0 0 0 0 -0 -0 -0 0 -0 0 0 0 0 -0 -0 -0 -0 -0 0 0 0 0 0 0 0 0 0 0 0 0 0 0
0 0 0 0 0 0 0 0 0 0 0 0 0 0 0 0 -0 -0 -0 0 -0 0 0 0 -0 -0 0 -0 -0 0 0 0 0 0 0 0 0 0 0 0 0 0 0
0 0 0 0 0 0 0 0 0 0 0 0 0 0 0 0 0 -0 0 0 0 0 0 0 0 0 0 -0 0 0 0 0 0 0 0 0 0 0 0 0 0 0 0
0 0 0 0 0 0 0 0 0 0 0 -0 0 0 0 0 0 -0 -0 -0 0 -0 0 0 0 0 -0 0 -0 0 0 0 0 0 0 0 0 0 0 0 0 0 0
0 0 -0 0 0 0 0 0 0 0 -0 0 0 0 0 0 0 0 -0 -0 0 0 0 0 0 0 0 -0 0 0 0 0 0 0 0 0 0 0 0 0 0 0 0
-0 -0 -0 0 0 0 0 0 0 -0 -0 0 0 0 0 0 0 0 0 0 -0 -0 0 0 0 0 0 0 0 0 0 0 0 0 0 0 0 0 0 0 0 0 0
-0 -0 -0 -0 0 0 0 0 -0 -0 -0 0 0 0 0 0 0 0 0 0 -0 -0 0 -0 -0 0 0 -0 0 0 0 0 0 0 0 0 0 0 0 0 0 0 0
-0 -0 -0 -0 -0 0 0 -0 0 -0 -0 -0 -0 -0 0 0 0 0 0 0 0 -0 0 -0 -0 -0 -0 -0 0 0 0 0 0 0 0 0 0 0 0 0 0 0 0
-0 -0 -0 -0 -0 0 -0 0 -0 -0 -0 -0 0 0 0 0 0 0 0 0 0 -0 -0 0 0 -0 -0 -0 0 0 0 0 0 0 0 0 0 0 0 0 0 0 0
-0 -0 -0 -0 -0 0 0 0 0 0 0 0 -0 0 0 0 0 0 0 0 0 0 0 0 0 -0 -0 -0 0 0 0 0 0 0 0 0 0 0 0 0 0 0 0
-0 -0 -0 -0 -0 -0 0 0 0 0 0 0 0 0 0 0 0 0 -0 0 -0 0 0 0 0 0 0 -0 0 0 0 0 0 0 0 0 0 0 0 0 0 0 0
-0 -0 -0 -0 -0 0 0 0 0 0 0 0 0 0 0 -0 -0 0 0 0 0 -0 0 -0 -0 0 -0 -0 0 0 0 0 -0 -0 0 0 0 0 0 0 0 0 -0
-0 -0 -0 -0 0 0 0 0 0 0 0 0 0 0 0 0 0 0 0 0 0 -0 -0 0 0 0 -0 -0 0 0 0 0 0 0 0 0 0 0 0 0 0 0 -0
0 0 0 0 0 0 0 0 -0 0 0 0 0 0 0 0 0 0 0 0 0 0 0 0 0 -0 -0 -0 0 -0 0 0 0 0 0 0 0 -0 -0 -0 -0 -0 -0
0 0 0 0 0 0 0 0 0 -0 -0 0 0 0 0 0 0 0 0 0 0 0 0 0 0 0 0 0 -0 -0 -0 -0 0 0 0 -0 0 -0 -0 -0 0 0 0
0 0 0 0 0 0 0 0 0 0 0 0 -0 0 0 0 0 0 -0 -0 0 0 0 0 0 0 0 -0 -0 -0 -0 -0 -0 -0 -0 -0 -0 -0 -0 0 0 -0 -0
0 0 0 0 0 0 0 0 0 0 0 0 -0 -0 -0 -0 -0 0 0 0 -0 -0 -0 0 0 0 0 -0 -0 -0 -0 -0 -0 -0 -0 -0 -0 -0 0 0 -0 -0 0
0 0 0 0 0 0 0 0 0 0 -0 0 0 0 0 0 0 0 0 0 0 -0 -0 -0 0 0 0 -0 -0 -0 -0 -0 -0 -0 0 0 0 -0 -0 0 0 0 0
0 0 0 0 0 0 0 0 0 0 0 0 0 0 -0 -0 -0 -0 -0 -0 -0 0 0 0 -0 -0 -0 -0 0 0 0 0 0 0 0 0 -0 0 0 0 0 0 0
0 0 0 0 0 0 0 0 0 0 0 0 -0 0 0 0 0 0 -0 -0 -0 -0 -0 -0 -0 -0 -0 -0 -0 0 0 0 0 0 0 0 0 0 0 0 0 0 0
0 0 0 0 0 0 0 0 0 0 0 0 0 0 0 0 0 0 0 0 0 0 0 0 0 0 0 0 0 0 -0 0 0 0 0 0 0 0 0 0 0 0 0
0 0 0 0 0 0 0 0 0 0 0 0 0 0 0 0 0 0 0 0 0 0 0 0 0 0 0 0 0 0 0 0 0 0 0 0 0 0 0 0 0 0 0
0 0 0 0 0 0 0 0 0 0 0 0 0 0 0 0 0 0 0 0 0 0 0 0 0 0 0 0 0 0 0 0 0 0 0 0 0 0 0 0 0 0 0
0 0 0 0 0 0 0 0 0 0 0 0 0 0 0 0 0 0 0 0 0 0 0 0 0 0 0 0 0 0 0 0 0 0 0 0 0 0 0 0 0 0 0
Wind_Speed_500mb
42 33 25 23 21 14 10 11 12 13 12 12 14 15 15 16 16 10 10 10 8 9 11 17 20 22 21 19 21 23 32 27 21 38 31 16 10 14 25 33 47 58 60
37 28 28 23 15 8 10 11 13 12 13 12 15 15 16 15 9 5 9 7 9 10 16 16 20 29 25 24 20 24 31 30 30 43 31 21 7 20 40 39 79 70 64
33 34 25 20 7 10 11 14 13 16 19 21 19 18 12 12 10 7 7 7 9 10 9 10 10 18 27 25 25 27 35 31 30 28 37 27 23 17 31 69 88 68 78
36 33 25 13 7 14 13 13 15 22 23 21 18 15 13 11 8 6 6 7 10 7 6 2 7 9 13 17 21 32 31 34 39 33 38 32 36 38 52 70 72 77 72
40 33 22 9 7 13 13 13 16 25 25 22 20 15 16 11 6 3 3 4 8 8 7 10 15 16 14 14 16 27 34 38 41 40 48 44 56 55 51 60 76 74 70
40 34 21 12 11 13 14 14 16 26 27 25 20 13 10 7 6 4 3 7 7 7 10 13 15 17 17 15 19 18 23 38 50 54 55 61 70 72 70 75 76 80 69
42 35 19 10 13 10 13 18 16 21 28 23 22 17 13 11 9 5 7 9 9 5 9 12 15 20 20 25 29 28 29 32 41 55 62 63 70 70 77 80 79 78 75
41 33 23 17 18 12 10 16 16 18 24 24 20 16 15 13 9 8 11 7 6 8 8 5 7 5 13 13 14 17 32 41 45 56 59 64 61 58 77 76 83 76 63
45 33 26 19 15 18 11 12 18 19 23 24 19 17 18 15 12 10 11 10 10 9 6 7 5 7 12 13 15 17 26 49 52 44 54 61 50 72 68 68 75 66 53
41 40 30 24 20 15 12 11 20 19 20 25 21 18 14 15 18 12 13 11 10 10 10 10 8 4 12 14 19 25 30 36 46 47 54 59 69 60 59 68 58 48 47
41 42 33 28 23 19 14 14 22 22 21 23 22 19 18 18 17 16 14 13 12 14 16 17 13 10 18 25 24 31 34 31 35 46 55 55 60 61 62 53 43 25 39
43 45 38 33 32 26 17 17 22 21 24 22 20 21 23 21 17 12 12 12 13 11 15 19 26 23 20 35 34 36 36 41 43 50 55 67 65 62 47 43 30 27 21
45 43 41 38 32 28 19 18 24 23 24 24 24 24 25 20 16 11 12 16 16 20 20 25 28 30 29 40 37 39 41 47 55 68 69 68 53 47 45 40 42 47 25
49 47 42 42 33 31 19 15 21 25 30 24 29 28 25 19 18 18 21 22 22 22 23 32 30 36 38 45 44 46 49 49 55 58 58 50 46 48 47 46 46 42 31
51 47 47 41 35 31 20 14 13 11 20 28 27 21 20 18 16 17 23 25 25 24 36 36 35 43 45 49 51 47 48 48 50 50 54 54 52 46 44 44 41 35 30
54 51 53 47 42 35 24 17 15 10 16 14 17 15 8 9 18 24 29 27 25 27 33 36 40 44 49 53 56 59 53 46 47 49 49 49 48 46 43 42 36 30 27
58 55 56 52 47 41 33 23 31 23 21 19 17 15 13 12 17 30 36 31 28 27 27 32 37 41 50 57 57 54 53 54 51 47 47 43 44 40 38 35 33 34 34
57 56 54 57 51 45 37 29 33 34 29 25 22 19 20 21 24 30 38 36 36 33 29 28 29 31 38 46 49 54 55 52 50 52 51 52 45 39 37 37 37 36 35
63 59 53 59 57 49 42 34 32 38 36 29 28 28 25 27 33 33 35 36 37 39 39 35 30 29 31 35 39 45 47 47 46 49 53 53 53 48 44 42 40 39 40
67 62 57 58 65 60 52 43 40 40 39 35 33 33 34 35 44 49 46 42 41 39 39 40 38 36 37 37 39 43 46 47 47 47 48 49 49 49 49 47 46 46 45
65 68 64 60 66 66 60 54 44 45 44 42 40 36 36 39 39 49 51 51 49 47 46 44 45 45 44 46 48 48 49 48 47 47 48 49 51 53 51 52 52 53 52
64 64 72 68 64 69 67 59 52 48 47 46 44 44 43 44 46 47 47 49 51 52 51 51 51 53 53 53 54 57 59 60 58 56 55 55 56 56 57 59 59 59 58
61 69 68 70 71 66 68 66 60 53 49 47 44 46 49 52 54 53 53 52 52 53 53 56 59 60 60 62 64 65 67 67 65 61 61 63 65 68 68 69 66 67 69
50 62 66 67 68 67 67 67 66 62 57 52 49 50 49 50 53 53 52 53 55 55 57 61 62 64 66 70 71 72 72 72 73 71 66 65 63 65 71 75 76 76 75
29 50 59 59 60 68 67 63 62 63 62 63 65 61 57 57 59 58 55 55 56 59 58 58 58 61 68 70 73 77 79 80 80 79 79 79 77 73 71 73 76 79 79
14 16 34 37 45 54 60 65 60 58 63 66 66 69 68 65 62 62 63 63 60 58 57 59 58 55 52 53 58 64 70 75 80 83 85 90 92 90 86 85 82 80 79
Wind_Direction_500mb
178 182 186 174 175 183 208 219 204 198 198 193 195 199 199 186 186 200 208 240 244 227 240 236 232 236 234 224 226 225 208 209 196 154 197 234 203 160 187 194 189 186 192
179 174 157 158 164 187 197 197 193 191 178 174 167 162 157 156 172 215 235 251 242 254 264 261 232 229 223 221 222 205 197 201 201 181 174 165 136 179 180 183 179 181 181
167 161 157 165 180 179 179 183 186 174 167 157 153 153 164 184 209 243 250 237 241 238 232 235 241 219 219 215 210 200 197 198 205 199 163 176 146 153 157 154 167 158 158
164 166 164 147 159 174 179 183 185 173 166 161 164 163 167 181 214 236 220 219 211 184 183 185 141 143 201 198 189 181 195 191 187 182 159 168 161 160 154 145 148 154 150
161 164 149 141 156 175 180 175 176 174 171 161 153 170 188 196 191 209 214 208 172 179 181 130 129 133 136 154 165 183 187 184 188 172 163 170 168 162 166 164 149 138 145
166 161 158 161 149 171 183 177 175 178 177 179 164 176 182 182 200 216 182 180 173 177 194 185 176 166 163 163 183 185 202 196 178 169 165 173 170 170 166 160 146 150 146
179 170 155 180 172 162 169 179 174 176 188 183 181 184 185 203 241 228 201 213 221 220 171 189 224 221 205 204 215 219 202 206 206 185 173 174 176 178 174 156 156 159 157
180 167 181 197 183 187 155 177 183 183 182 186 190 202 212 216 241 195 194 200 192 200 181 212 224 198 166 184 212 199 196 194 194 192 186 183 190 183 166 163 163 162 158
182 181 188 194 196 201 186 188 190 181 184 181 196 213 227 232 204 204 177 171 171 187 161 122 126 158 146 167 167 173 175 185 188 190 189 189 193 178 173 168 165 165 164
187 188 190 200 206 200 205 209 193 184 187 191 199 208 215 199 199 184 184 188 192 204 212 178 161 125 147 159 153 153 155 162 178 179 185 182 175 177 173 172 168 176 173
187 189 192 205 213 209 209 212 196 194 194 196 207 221 211 199 179 178 188 204 222 220 204 194 183 142 141 152 144 143 144 150 167 173 167 163 168 167 170 176 179 189 180
190 192 197 203 208 206 213 206 197 203 197 193 208 202 181 180 189 204 192 183 217 206 188 178 164 134 138 151 143 132 133 139 153 155 155 161 164 169 175 179 187 171 167
193 195 205 210 209 208 214 209 198 199 190 197 202 197 187 184 190 189 178 173 159 148 145 159 154 155 146 150 147 142 137 141 143 150 155 163 166 171 173 174 166 168 154
193 201 204 208 208 206 211 223 211 199 191 201 202 203 199 202 202 198 178 165 156 158 153 156 150 153 148 155 150 152 154 156 156 162 168 174 167 166 167 168 169 173 183
196 202 203 203 208 204 208 217 216 217 211 203 197 201 205 205 180 179 175 166 155 155 149 148 148 155 154 163 162 159 158 162 169 173 172 173 175 174 175 176 180 179 188
202 207 207 205 203 205 202 195 178 168 184 185 198 216 204 161 169 172 169 166 158 161 159 159 162 161 169 171 179 179 179 173 178 177 176 182 185 184 184 189 194 202 208
207 212 213 211 208 205 203 204 191 174 168 165 172 188 190 172 163 164 168 170 172 171 170 173 172 172 176 178 182 187 188 187 186 188 192 192 194 194 198 205 214 225 234
212 218 220 217 214 212 212 209 204 199 189 181 180 176 176 181 179 174 175 181 185 183 181 177 173 183 180 180 185 189 193 193 195 197 198 202 201 201 210 219 229 239 248
216 219 222 225 223 221 219 215 213 206 206 200 196 192 189 190 192 199 202 204 198 195 192 192 194 191 188 187 182 178 184 190 193 198 203 207 213 224 231 237 243 249 256
222 226 226 227 226 224 223 220 216 212 208 208 211 207 204 202 205 206 210 212 211 212 210 208 207 209 209 205 199 196 197 199 203 207 212 216 221 230 238 244 249 254 261
224 227 229 235 235 230 227 225 226 222 218 218 219 222 224 224 220 221 221 222 223 222 223 225 221 216 215 217 218 218 218 219 220 223 227 231 236 241 245 250 254 259 265
230 232 232 233 237 237 235 233 232 229 228 227 227 231 233 236 237 239 239 239 240 238 235 233 232 231 229 227 225 224 227 230 232 236 241 244 248 251 254 256 258 261 264
231 233 233 236 238 238 238 239 240 236 235 235 233 233 237 239 242 246 248 250 251 250 249 246 244 242 240 237 235 235 235 234 233 235 242 249 255 258 260 260 261 264 266
238 242 239 239 238 240 243 241 242 245 244 240 240 240 241 243 247 252 257 257 255 254 253 251 249 247 247 245 244 244 244 244 243 242 245 250 257 260 261 262 263 266 271
224 232 245 248 244 244 242 241 245 250 254 256 255 253 255 255 254 256 259 261 263 261 259 257 255 252 249 248 247 247 248 248 249 248 249 251 256 260 265 267 268 270 271
96 180 222 235 244 245 250 253 250 253 256 258 262 265 267 266 265 263 262 263 265 265 264 263 261 259 257 256 255 255 253 251 249 249 250 252 254 256 258 261 265 268 271
Wind_Speed_850mb
42 33 25 23 21 14 10 11 12 13 12 12 14 15 15 16 16 10 10 10 8 9 11 17 20 22 21 19 21 23 32 27 21 38 31 16 10 14 25 33 47 58 60
37 28 28 23 15 8 10 11 13 12 13 12 15 15 16 15 9 5 9 7 9 10 16 16 20 29 25 24 20 24 31 30 30 43 31 21 7 20 40 39 79 70 64
33 34 25 20 7 10 11 14 13 16 19 21 19 18 12 12 10 7 7 7 9 10 9 10 10 18 27 25 25 27 35 31 30 28 37 27 23 17 31 69 88 68 78
36 33 25 13 7 14 13 13 15 22 23 21 18 15 13 11 8 6 6 7 10 7 6 2 7 9 13 17 21 32 31 34 39 33 38 32 36 38 52 70 72 77 72
40 33 22 9 7 13 13 13 16 25 25 22 20 15 16 11 6 3 3 4 8 8 7 10 15 16 14 14 16 27 34 38 41 40 48 44 56 55 51 60 76 74 70
40 34 21 12 11 13 14 14 16 26 27 25 20 13 10 7 6 4 3 7 7 7 10 13 15 17 17 15 19 18 23 38 50 54 55 61 70 72 70 75 76 80 69
42 35 19 10 13 10 13 18 16 21 28 23 22 17 13 11 9 5 7 9 9 5 9 12 15 20 20 25 29 28 29 32 41 55 62 63 70 70 77 80 79 78 75
41 33 23 17 18 12 10 16 16 18 24 24 20 16 15 13 9 8 11 7 6 8 8 5 7 5 13 13 14 17 32 41 45 56 59 64 61 58 77 76 83 76 63
45 33 26 19 15 18 11 12 18 19 23 24 19 17 18 15 12 10 11 10 10 9 6 7 5 7 12 13 15 17 26 49 52 44 54 61 50 72 68 68 75 66 53
41 40 30 24 20 15 12 11 20 19 20 25 21 18 14 15 18 12 13 11 10 10 10 10 8 4 12 14 19 25 30 36 46 47 54 59 69 60 59 68 58 48 47
41 42 33 28 23 19 14 14 22 22 21 23 22 19 18 18 17 16 14 13 12 14 16 17 13 10 18 25 24 31 34 31 35 46 55 55 60 61 62 53 43 25 39
43 45 38 33 32 26 17 17 22 21 24 22 20 21 23 21 17 12 12 12 13 11 15 19 26 23 20 35 34 36 36 41 43 50 55 67 65 62 47 43 30 27 21
45 43 41 38 32 28 19 18 24 23 24 24 24 24 25 20 16 11 12 16 16 20 20 25 28 30 29 40 37 39 41 47 55 68 69 68 53 47 45 40 42 47 25
49 47 42 42 33 31 19 15 21 25 30 24 29 28 25 19 18 18 21 22 22 22 23 32 30 36 38 45 44 46 49 49 55 58 58 50 46 48 47 46 46 42 31
51 47 47 41 35 31 20 14 13 11 20 28 27 21 20 18 16 17 23 25 25 24 36 36 35 43 45 49 51 47 48 48 50 50 54 54 52 46 44 44 41 35 30
54 51 53 47 42 35 24 17 15 10 16 14 17 15 8 9 18 24 29 27 25 27 33 36 40 44 49 53 56 59 53 46 47 49 49 49 48 46 43 42 36 30 27
58 55 56 52 47 41 33 23 31 23 21 19 17 15 13 12 17 30 36 31 28 27 27 32 37 41 50 57 57 54 53 54 51 47 47 43 44 40 38 35 33 34 34
57 56 54 57 51 45 37 29 33 34 29 25 22 19 20 21 24 30 38 36 36 33 29 28 29 31 38 46 49 54 55 52 50 52 51 52 45 39 37 37 37 36 35
63 59 53 59 57 49 42 34 32 38 36 29 28 28 25 27 33 33 35 36 37 39 39 35 30 29 31 35 39 45 47 47 46 49 53 53 53 48 44 42 40 39 40
67 62 57 58 65 60 52 43 40 40 39 35 33 33 34 35 44 49 46 42 41 39 39 40 38 36 37 37 39 43 46 47 47 47 48 49 49 49 49 47 46 46 45
65 68 64 60 66 66 60 54 44 45 44 42 40 36 36 39 39 49 51 51 49 47 46 44 45 45 44 46 48 48 49 48 47 47 48 49 51 53 51 52 52 53 52
64 64 72 68 64 69 67 59 52 48 47 46 44 44 43 44 46 47 47 49 51 52 51 51 51 53 53 53 54 57 59 60 58 56 55 55 56 56 57 59 59 59 58
61 69 68 70 71 66 68 66 60 53 49 47 44 46 49 52 54 53 53 52 52 53 53 56 59 60 60 62 64 65 67 67 65 61 61 63 65 68 68 69 66 67 69
50 62 66 67 68 67 67 67 66 62 57 52 49 50 49 50 53 53 52 53 55 55 57 61 62 64 66 70 71 72 72 72 73 71 66 65 63 65 71 75 76 76 75
29 50 59 59 60 68 67 63 62 63 62 63 65 61 57 57 59 58 55 55 56 59 58 58 58 61 68 70 73 77 79 80 80 79 79 79 77 73 71 73 76 79 79
14 16 34 37 45 54 60 65 60 58 63 66 66 69 68 65 62 62 63 63 60 58 57 59 58 55 52 53 58 64 70 75 80 83 85 90 92 90 86 85 82 80 79
Wind_Direction_850mb
178 182 186 174 175 183 208 219 204 198 198 193 195 199 199 186 186 200 208 240 244 227 240 236 232 236 234 224 226 225 208 209 196 154 197 234 203 160 187 194 189 186 192
179 174 157 158 164 187 197 197 193 191 178 174 167 162 157 156 172 215 235 251 242 254 264 261 232 229 223 221 222 205 197 201 201 181 174 165 136 179 180 183 179 181 181
167 161 157 165 180 179 179 183 186 174 167 157 153 153 164 184 209 243 250 237 241 238 232 235 241 219 219 215 210 200 197 198 205 199 163 176 146 153 157 154 167 158 158
164 166 164 147 159 174 179 183 185 173 166 161 164 163 167 181 214 236 220 219 211 184 183 185 141 143 201 198 189 181 195 191 187 182 159 168 161 160 154 145 148 154 150
161 164 149 141 156 175 180 175 176 174 171 161 153 170 188 196 191 209 214 208 172 179 181 130 129 133 136 154 165 183 187 184 188 172 163 170 168 162 166 164 149 138 145
166 161 158 161 149 171 183 177 175 178 177 179 164 176 182 182 200 216 182 180 173 177 194 185 176 166 163 163 183 185 202 196 178 169 165 173 170 170 166 160 146 150 146
179 170 155 180 172 162 169 179 174 176 188 183 181 184 185 203 241 228 201 213 221 220 171 189 224 221 205 204 215 219 202 206 206 185 173 174 176 178 174 156 156 159 157
180 167 181 197 183 187 155 177 183 183 182 186 190 202 212 216 241 195 194 200 192 200 181 212 224 198 166 184 212 199 196 194 194 192 186 183 190 183 166 163 163 162 158
182 181 188 194 196 201 186 188 190 181 184 181 196 213 227 232 204 204 177 171 171 187 161 122 126 158 146 167 167 173 175 185 188 190 189 189 193 178 173 168 165 165 164
187 188 190 200 206 200 205 209 193 184 187 191 199 208 215 199 199 184 184 188 192 204 212 178 161 125 147 159 153 153 155 162 178 179 185 182 175 177 173 172 168 176 173
187 189 192 205 213 209 209 212 196 194 194 196 207 221 211 199 179 178 188 204 222 220 204 194 183 142 141 152 144 143 144 150 167 173 167 163 168 167 170 176 179 189 180
190 192 197 203 208 206 213 206 197 203 197 193 208 202 181 180 189 204 192 183 217 206 188 178 164 134 138 151 143 132 133 139 153 155 155 161 164 169 175 179 187 171 167
193 195 205 210 209 208 214 209 198 199 190 197 202 197 187 184 190 189 178 173 159 148 145 159 154 155 146 150 147 142 137 141 143 150 155 163 166 171 173 174 166 168 154
193 201 204 208 208 206 211 223 211 199 191 201 202 203 199 202 202 198 178 165 156 158 153 156 150 153 148 155 150 152 154 156 156 162 168 174 167 166 167 168 169 173 183
196 202 203 203 208 204 208 217 216 217 211 203 197 201 205 205 180 179 175 166 155 155 149 148 148 155 154 163 162 159 158 162 169 173 172 173 175 174 175 176 180 179 188
202 207 207 205 203 205 202 195 178 168 184 185 198 216 204 161 169 172 169 166 158 161 159 159 162 161 169 171 179 179 179 173 178 177 176 182 185 184 184 189 194 202 208
207 212 213 211 208 205 203 204 191 174 168 165 172 188 190 172 163 164 168 170 172 171 170 173 172 172 176 178 182 187 188 187 186 188 192 192 194 194 198 205 214 225 234
212 218 220 217 214 212 212 209 204 199 189 181 180 176 176 181 179 174 175 181 185 183 181 177 173 183 180 180 185 189 193 193 195 197 198 202 201 201 210 219 229 239 248
216 219 222 225 223 221 219 215 213 206 206 200 196 192 189 190 192 199 202 204 198 195 192 192 194 191 188 187 182 178 184 190 193 198 203 207 213 224 231 237 243 249 256
222 226 226 227 226 224 223 220 216 212 208 208 211 207 204 202 205 206 210 212 211 212 210 208 207 209 209 205 199 196 197 199 203 207 212 216 221 230 238 244 249 254 261
224 227 229 235 235 230 227 225 226 222 218 218 219 222 224 224 220 221 221 222 223 222 223 225 221 216 215 217 218 218 218 219 220 223 227 231 236 241 245 250 254 259 265
230 232 232 233 237 237 235 233 232 229 228 227 227 231 233 236 237 239 239 239 240 238 235 233 232 231 229 227 225 224 227 230 232 236 241 244 248 251 254 256 258 261 264
231 233 233 236 238 238 238 239 240 236 235 235 233 233 237 239 242 246 248 250 251 250 249 246 244 242 240 237 235 235 235 234 233 235 242 249 255 258 260 260 261 264 266
238 242 239 239 238 240 243 241 242 245 244 240 240 240 241 243 247 252 257 257 255 254 253 251 249 247 247 245 244 244 244 244 243 242 245 250 257 260 261 262 263 266 271
224 232 245 248 244 244 242 241 245 250 254 256 255 253 255 255 254 256 259 261 263 261 259 257 255 252 249 248 247 247 248 248 249 248 249 251 256 260 265 267 268 270 271
96 180 222 235 244 245 250 253 250 253 256 258 262 265 267 266 265 263 262 263 265 265 264 263 261 259 257 256 255 255 253 251 249 249 250 252 254 256 258 261 265 268 271